Glasgow, MT

6:59 AM MDT on August 21, 2017 (GMT -0600)
Wokal-Glasgow International

Weather History for KGGW - August, 2014

Change the Weather History Date:

Sunday, August 17, 2014

  Actual Average Record
Temperature  
Mean Temperature 71 °F 70 °F  
Max Temperature 83 °F 85 °F 103 °F (1958)
Min Temperature 59 °F 56 °F 38 °F (2002)
Degree Days  
Heating Degree Days 0 1  
Month to date heating degree days 0 9  
Since 1 June heating degree days 112 132  
Since 1 July heating degree days 4 27  
Cooling Degree Days 6 6  
Month to date cooling degree days 161 129  
Year to date cooling degree days 432 428  
Since 1 June cooling degree days 398 411  
Growing Degree Days 20 (Base 50)    
Moisture  
Dew Point 56 °F    
Average Humidity 64    
Maximum Humidity 90    
Minimum Humidity 37    
Precipitation  
Precipitation 0.01 in 0.04 in 0.87 in (1918)
Month to date precipitation 1.20 0.74  
Year to date precipitation 7.43 8.67  
Snow  
Snow 0.00 in 0.00 in T in (1949)
Month to date snowfall 0.0 0.0  
Since 1 June snowfall 0.0 0.0  
Since 1 July snowfall 0.0 0.0  
Snow Depth 0.00 in    
Sea Level Pressure  
Sea Level Pressure 29.89 in    
Wind  
Wind Speed 10 mph (West)    
Max Wind Speed 26 mph    
Max Gust Speed 33 mph    
Visibility 10 miles    
Events Rain    
T = Trace of Precipitation, MM = Missing Value Source: NWS Daily Summary

Daily Weather History Graph

Daily Weather History Graph

Search for Another Location

Airport or City:

Trip Planner

Search our weather history database for the weather conditions in past years. The results will help you decide how hot, cold, wet, or windy it might be!

Date:

Astronomy

Aug. 17, 2014 Rise Set
Actual Time 6:03 AM MDT 8:16 PM MDT
Civil Twilight 5:29 AM MDT 8:50 PM MDT
Nautical Twilight 4:46 AM MDT 9:32 PM MDT
Astronomical Twilight 3:58 AM MDT 10:20 PM MDT
Moon No Moon Rise 2:29 PM MDT (8/17)
Length of Visible Light 15h 20m
Length of Day
14h 12m
Waning Gibbous, 48% of the Moon is Illuminated
Aug 17
Waning Gibbous
Aug 25
New
Sep 2
First Quarter
Sep 8
Full
Sep 15
Last Quarter

Hourly Weather History & Observations

Time (MDT) Temp. Heat Index Dew Point Humidity Pressure Visibility Wind Dir Wind Speed Gust Speed Precip Events Conditions
12:53 AM 69.8 °F - 57.2 °F 64% 29.92 in 10.0 mi SW 5.8 mph - N/A   Overcast
1:53 AM 66.9 °F - 54.0 °F 63% 29.88 in 10.0 mi West 6.9 mph - N/A   Overcast
2:53 AM 64.0 °F - 54.0 °F 70% 29.88 in 10.0 mi WNW 5.8 mph - N/A   Mostly Cloudy
3:53 AM 62.1 °F - 53.1 °F 72% 29.89 in 10.0 mi West 5.8 mph - N/A   Clear
4:53 AM 61.0 °F - 53.1 °F 75% 29.89 in 10.0 mi West 5.8 mph - N/A   Clear
5:53 AM 60.1 °F - 53.1 °F 78% 29.90 in 10.0 mi WNW 5.8 mph - N/A   Clear
6:53 AM 63.0 °F - 54.0 °F 72% 29.90 in 10.0 mi WSW 3.5 mph - N/A   Partly Cloudy
7:53 AM 64.9 °F - 53.1 °F 65% 29.91 in 10.0 mi SW 4.6 mph - N/A   Clear
8:53 AM 70.0 °F - 53.1 °F 55% 29.91 in 10.0 mi West 5.8 mph - N/A   Mostly Cloudy
9:53 AM 73.9 °F - 53.1 °F 48% 29.90 in 10.0 mi West 12.7 mph - N/A   Partly Cloudy
10:53 AM 73.9 °F - 55.0 °F 52% 29.91 in 10.0 mi West 11.5 mph - N/A   Mostly Cloudy
11:53 AM 78.1 °F - 55.9 °F 46% 29.89 in 10.0 mi West 16.1 mph 24.2 mph N/A   Scattered Clouds
12:53 PM 78.1 °F - 55.0 °F 45% 29.88 in 10.0 mi WNW 18.4 mph 25.3 mph N/A   Mostly Cloudy
1:53 PM 80.1 °F 80.0 °F 54.0 °F 40% 29.86 in 10.0 mi West 16.1 mph 26.5 mph N/A   Scattered Clouds
2:53 PM 81.0 °F 80.5 °F 54.0 °F 39% 29.86 in 10.0 mi West 19.6 mph 31.1 mph N/A   Mostly Cloudy
3:53 PM 82.0 °F 81.3 °F 54.0 °F 38% 29.85 in 10.0 mi West 18.4 mph 28.8 mph N/A   Partly Cloudy
4:53 PM 72.0 °F - 55.9 °F 57% 29.88 in 10.0 mi NW 23.0 mph 29.9 mph N/A   Scattered Clouds
5:53 PM 68.0 °F - 61.0 °F 78% 29.88 in 9.0 mi WNW 12.7 mph - 0.01 in Rain Light Rain
6:53 PM 71.1 °F - 61.0 °F 70% 29.86 in 10.0 mi WNW 11.5 mph - 0.00 in   Clear
7:53 PM 69.1 °F - 61.0 °F 75% 29.88 in 10.0 mi West 9.2 mph - N/A   Clear
8:53 PM 68.0 °F - 60.1 °F 76% 29.88 in 10.0 mi WNW 6.9 mph - N/A   Clear
9:53 PM 66.0 °F - 59.0 °F 78% 29.91 in 10.0 mi NW 10.4 mph - N/A   Partly Cloudy
10:53 PM 64.0 °F - 57.9 °F 80% 29.91 in 10.0 mi NW 8.1 mph - N/A   Clear
11:53 PM 63.0 °F - 59.0 °F 87% 29.91 in 10.0 mi NW 6.9 mph - N/A   Scattered Clouds